Flag for Germany Weather past 2 weeks in Leipzig, Saxony, Germany

Now
61 °F

Partly sunny.


Feels Like: 61 °F
Forecast: 50 / 65 °F
Wind: 12 mph from Southwest

Location: Leipzig-Schkeuditz

Current Time: Aug 23, 2014 at 12:06:06 PM

Latest Report: Aug 23, 2014 at 11:20 AM


Visibility: N/A

Pressure: 29.92 "Hg

Humidity: 68%

Dew point: 50 °F

Location of LeipzigLocation

Historic Weather in Leipzig — Graph

°F

Leipzig temperature yesterday

Maximum temperature yesterday: 70 °F (at 3:20 PM)
Minimum temperature yesterday: 48 °F (at 5:50 AM)
Average temperature yesterday: 60 °F

Past Weeks' High & Low Weather Summary

 TemperatureHumidityPressure
High84 °F (Aug 10, 3:20 PM)100% (Aug 13, 11:20 PM)30.01 "Hg (Aug 13, 11:20 PM)
Low48 °F (Aug 20, 3:50 AM)31% (Aug 12, 5:20 PM)29.62 "Hg (Aug 13, 6:50 PM)
Average63 °F69%29.87 "Hg
* Reported Aug 8 10:20 AM — Aug 23 10:50 AM, Leipzig, Weather by CustomWeather, © 2014

Note: Actual official high and low records may vary slightly from our data, if they occured in-between our weather recording intervals... More about our weather records

Advertising

Leipzig weather history for previous 24 hours

 ConditionsComfort  
Time TempWeatherWind HumidityBarometerVisibility
10:50 AM
Aug 23
63 °FPartly sunny.13 mph68%29.92 "HgN/A
10:20 AM61 °FBroken clouds.14 mph72%29.92 "HgN/A
9:50 AM59 °FPartly sunny.12 mph72%29.92 "HgN/A
9:20 AM59 °FLight rain. Partly sunny.9 mph77%29.92 "HgN/A
8:50 AM57 °FLight rain. Broken clouds.9 mph82%29.89 "HgN/A
8:20 AM59 °FLight rain. Partly sunny.8 mph72%29.92 "HgN/A
7:50 AM57 °FSunny.8 mph77%29.92 "Hg10 mi
7:20 AM55 °FBroken clouds.7 mph82%29.92 "HgN/A
6:50 AM55 °FPartly cloudy.7 mph77%29.89 "HgN/A
6:20 AM55 °FPassing clouds.3 mph77%29.89 "HgN/A
5:50 AM54 °FPassing clouds.5 mph77%29.89 "HgN/A
5:20 AM54 °FClear.3 mph77%29.89 "Hg10 mi
4:50 AM54 °FClear.3 mph77%29.89 "Hg10 mi
4:20 AM55 °FClear.3 mph72%29.89 "Hg10 mi
3:50 AM55 °FClear.7 mph72%29.89 "Hg10 mi
3:20 AM55 °FClear.7 mph72%29.89 "Hg10 mi
2:50 AM57 °FClear.3 mph63%29.89 "Hg10 mi
2:20 AM55 °FClear.8 mph67%29.89 "Hg10 mi
1:50 AM57 °FClear.8 mph63%29.89 "Hg10 mi
1:20 AM57 °FClear.9 mph59%29.89 "Hg10 mi
12:50 AM57 °FClear.7 mph59%29.89 "Hg10 mi
12:20 AM57 °FClear.8 mph59%29.89 "Hg10 mi
11:50 PM
Aug 22
61 °FClear.8 mph52%29.89 "Hg10 mi
11:20 PM59 °FClear.7 mph55%29.92 "Hg10 mi
10:50 PM59 °FClear.8 mph55%29.89 "Hg10 mi
10:20 PM59 °FClear.8 mph55%29.92 "Hg10 mi
9:50 PM61 °FClear.6 mph52%29.89 "Hg10 mi
9:20 PM63 °FClear.6 mph49%29.89 "Hg10 mi
8:50 PM63 °FSunny.8 mph45%29.89 "Hg10 mi
8:20 PM63 °FSunny.8 mph49%29.89 "Hg10 mi
7:50 PM64 °FSunny.8 mph43%29.89 "Hg10 mi
7:20 PM64 °FSunny.9 mph43%29.89 "Hg10 mi
6:50 PM66 °FSunny.10 mph40%29.89 "Hg10 mi
6:20 PM66 °FSunny.13 mph46%29.89 "Hg10 mi
5:50 PM68 °FSunny.13 mph38%29.89 "Hg10 mi
5:20 PM68 °FSunny.10 mph40%29.92 "Hg10 mi
4:50 PM68 °FSunny.12 mph35%29.92 "Hg10 mi
4:20 PM68 °FSunny.12 mph43%29.92 "Hg10 mi
3:50 PM68 °FSunny.13 mph35%29.92 "Hg10 mi
3:20 PM70 °FSunny.12 mph38%29.92 "Hg10 mi
2:50 PM68 °FSunny.10 mph38%29.92 "Hg10 mi
2:20 PM68 °FSunny.7 mph35%29.95 "Hg10 mi
1:50 PM66 °FSunny.10 mph37%29.95 "Hg10 mi
1:20 PM68 °FSunny.12 mph40%29.95 "Hg10 mi
12:50 PM66 °FSunny.13 mph43%29.95 "Hg10 mi
12:20 PM68 °FBroken clouds.13 mph40%29.95 "HgN/A
Weather by CustomWeather, © 2014

See weather overviewHow to use our weather pages